SCP
0 0 0 0 0 0 0 0 0 0 0 -0 -0 0 0 0 0 0 0 0 0 0 0 0 0 0 0 0 0 0 0 0 0 0 0 0 0 0 0 0 0 0 0 0
0 0 0 0 0 0 0 0 0 0 0 0 0 0 0 0 0 0 0 0 0 0 0 0 0 0 0 0 0 0 0 0 0 0 0 0 0 0 0 0 0 0 0 0
0 0 0 0 0 0 0 0 0 0 0 0 0 0 0 0 0 0 0 0 0 0 0 0 0 0 0 0 0 0 0 0 0 0 0 0 0 0 0 0 0 0 0 0
0 0 0 0 0 0 0 0 0 0 0 0 0 0 0 0 0 0 0 0 0 0 0 0 0 0 0 0 0 0 0 0 0 0 0 0 0 0 0 0 0 0 0 0
0 0 0 0 0 0 0 0 0 0 0 0 0 0 0 0 0 0 0 0 0 0 0 0 0 0 0 0 0 0 0 0 0 0 0 0 0 0 0 0 0 0 0 0
0 0 0 0 0 0 0 0 0 0 0 0 0 0 0 0 0 0 -0 -0 -0 0 0 0 0 0 0 0 0 0 0 0 0 0 0 0 0 0 0 0 0 0 0 0
0 0 0 0 0 0 0 0 0 0 0 0 0 0 0 0 0 0 -0 -0 -0 0 0 0 0 0 0 0 0 0 0 0 0 0 0 0 0 0 0 0 0 0 0 0
0 0 0 0 0 0 0 0 0 0 0 0 0 0 0 0 0 0 -0 -0 0 0 0 0 0 0 0 0 0 0 0 0 0 0 0 0 0 0 0 0 0 0 0 0
0 0 0 0 0 0 0 0 0 0 0 0 0 0 0 0 0 -0 -0 0 0 0 0 0 0 0 0 0 0 0 0 0 0 0 0 0 0 0 0 0 0 0 0 0
0 0 0 0 0 0 0 0 0 0 0 0 0 0 0 0 0 -0 0 0 0 0 0 0 0 0 0 0 0 0 0 0 0 0 0 0 0 0 0 0 0 0 0 0
0 0 0 0 0 0 0 0 0 0 0 0 0 0 0 0 0 0 0 0 0 0 0 0 0 0 0 0 0 0 0 0 0 0 0 0 0 0 0 0 0 0 0 0
0 0 0 0 0 0 0 0 0 0 0 0 -0 0 0 0 0 0 0 0 0 0 0 0 0 0 0 0 0 0 0 0 0 0 0 0 0 0 0 0 0 0 0 0
0 0 0 0 0 0 0 0 0 0 0 -0 -0 0 0 0 0 0 0 0 0 0 0 0 0 0 0 0 0 0 0 0 0 0 0 0 0 0 0 0 0 0 0 0
0 0 0 0 0 0 0 0 0 0 0 -0 -0 0 0 0 0 0 0 0 0 0 0 0 0 0 0 0 0 0 0 0 0 0 0 0 0 0 0 0 0 0 0 0
0 0 0 0 0 0 0 0 0 0 0 0 0 0 0 0 0 0 0 0 0 0 0 0 0 0 0 0 0 0 0 0 0 0 0 0 0 0 0 0 0 0 0 0
0 0 0 0 0 0 0 0 0 0 0 -0 0 0 0 0 0 0 0 0 0 0 0 0 0 0 0 0 0 0 0 0 0 0 0 0 0 0 0 0 0 0 0 0
0 0 0 0 0 0 0 0 0 0 0 0 0 0 0 0 0 0 0 0 0 0 0 0 0 0 0 0 0 0 0 0 0 0 0 0 0 0 0 0 0 0 0 0
0 0 0 0 0 0 0 0 0 0 0 0 0 0 0 0 0 0 0 0 0 0 0 0 0 0 0 0 0 0 0 0 0 0 0 0 0 0 0 0 0 0 0 0
0 0 0 0 0 -0 -0 0 0 0 0 0 0 0 0 0 0 0 0 0 0 0 0 0 0 0 0 0 0 0 0 0 0 0 0 0 0 0 0 0 0 0 0 0
0 0 0 0 0 -0 -0 0 0 0 0 -0 0 0 0 0 0 0 0 0 0 0 0 0 0 0 0 0 0 0 0 0 0 0 0 0 0 0 0 0 0 0 0 0
0 0 0 0 0 0 0 0 0 -0 -0 -0 -0 0 0 0 0 0 0 0 0 0 0 0 0 0 0 0 0 0 0 0 0 0 0 0 0 0 0 0 0 0 0 0
0 0 0 0 0 0 0 0 0 -0 -0 -0 -0 -0 0 0 0 0 0 0 0 0 0 0 0 0 0 0 0 0 0 0 0 0 0 0 0 0 0 0 0 0 0 0
0 0 0 0 0 0 0 0 0 0 0 0 0 -0 -0 0 0 0 0 0 0 0 0 0 0 0 0 0 0 0 0 0 0 0 0 0 0 0 0 0 0 0 0 0
0 0 0 0 0 0 0 0 0 0 0 0 0 -0 -0 0 0 0 0 0 0 0 0 0 0 0 0 0 0 0 0 0 0 0 0 0 0 0 0 0 0 0 0 0
0 0 0 0 0 -0 0 0 0 0 0 0 0 0 -0 0 0 0 0 0 0 0 0 0 0 0 0 0 0 0 0 0 0 0 0 0 0 0 0 0 0 0 0 0
0 0 0 0 -0 -0 0 0 0 0 0 0 0 0 0 0 0 0 0 0 0 0 0 0 0 0 0 0 0 0 0 0 0 0 0 0 0 0 0 0 0 0 0 0
0 0 0 0 -0 -0 0 0 0 0 0 0 0 0 0 0 0 0 0 0 0 0 0 0 0 0 0 0 0 0 0 0 0 0 0 0 0 0 0 0 0 0 0 0
Wind_Speed
8 8 6 8 8 8 10 9 8 9 8 9 6 5 4 2 1 1 1 1 1 1 1 1 0 0 0 0 0 1 1 1 2 2 2 2 2 2 2 2 3 3 3 3
6 7 7 9 11 11 11 11 12 12 13 7 4 3 2 2 2 3 2 2 1 2 2 1 1 1 1 1 1 1 1 2 2 2 2 3 3 2 3 3 3 3 3 3
5 3 5 9 10 11 9 8 8 11 10 4 4 3 3 3 4 3 3 2 2 2 2 2 2 1 1 1 1 1 2 2 2 2 2 2 3 3 3 3 3 2 3 3
4 3 9 7 2 5 7 8 8 7 5 4 4 4 4 3 2 2 1 1 1 1 2 1 1 1 1 1 1 2 2 3 3 3 3 2 3 3 3 3 3 3 3 3
3 6 9 5 2 1 3 6 4 5 5 3 3 3 3 1 1 1 1 1 1 1 1 1 1 1 1 1 2 2 3 3 3 3 2 3 3 3 3 3 3 2 2 3
4 5 7 4 1 0 0 5 2 2 3 2 2 3 3 1 2 1 1 1 1 1 1 1 1 1 1 2 2 3 3 3 3 2 2 3 3 3 2 2 3 2 3 3
6 7 8 3 2 2 2 5 1 2 2 2 3 4 3 2 2 1 1 1 1 1 1 2 2 1 2 2 3 3 2 2 2 2 2 2 2 2 2 2 2 2 2 2
5 7 8 2 2 4 4 2 2 2 2 2 3 3 3 2 1 1 1 1 1 1 2 2 1 1 2 3 2 2 2 2 2 1 1 2 1 2 2 2 1 1 1 1
7 7 3 3 4 3 1 3 3 2 2 2 3 3 3 2 2 1 1 1 1 1 2 2 2 1 2 2 1 1 1 2 1 1 1 1 1 1 1 1 1 1 1 1
5 7 5 4 4 3 3 3 3 3 2 3 3 3 3 2 2 2 1 1 1 1 2 3 2 2 2 2 1 1 1 1 1 1 1 1 1 1 1 1 1 1 1 1
7 7 5 5 4 3 3 2 3 3 2 2 3 3 3 2 2 2 2 1 1 1 2 3 2 2 2 1 1 1 1 1 1 1 0 0 1 1 1 1 2 2 1 1
7 4 3 3 1 1 2 3 2 2 3 3 2 3 3 2 2 2 2 2 1 1 2 2 2 2 2 2 1 1 1 1 1 0 0 1 1 1 2 2 2 3 2 2
5 2 2 3 2 1 2 2 2 2 3 3 2 2 2 2 2 2 2 2 2 2 2 2 2 3 2 2 1 1 1 1 1 1 1 1 1 1 1 2 2 2 2 2
2 2 3 3 3 2 1 1 2 2 2 2 2 2 1 2 2 2 2 2 2 2 2 2 2 3 2 1 1 1 1 1 1 1 1 1 1 1 1 1 1 1 2 2
3 3 4 2 2 1 1 1 1 2 3 2 2 2 2 2 2 3 3 2 2 2 2 2 2 3 2 1 1 1 1 1 1 1 1 1 1 1 1 1 0 1 1 1
2 2 2 2 2 2 1 2 2 3 3 2 2 2 2 2 2 3 3 2 2 3 3 2 3 3 1 1 1 1 1 1 1 1 1 1 0 0 0 0 0 0 1 1
3 3 3 3 3 3 3 3 3 3 3 3 3 3 2 2 2 3 3 2 2 3 3 3 3 2 2 1 1 1 1 1 1 0 0 0 0 0 0 0 0 0 0 1
4 4 3 3 3 3 3 3 3 3 3 3 2 2 2 2 3 3 3 2 2 2 3 2 2 1 1 1 1 1 1 1 1 0 0 0 0 0 0 0 0 0 1 1
1 2 2 2 2 3 3 3 3 2 2 2 2 3 3 3 3 3 2 2 2 3 3 1 2 1 1 1 1 1 1 1 1 0 0 1 0 0 0 0 0 0 0 0
1 1 1 2 2 2 2 2 2 2 2 2 2 2 3 3 2 2 2 2 3 2 2 1 1 1 1 2 2 1 1 1 1 1 0 1 1 0 0 0 0 0 0 0
2 2 2 2 2 2 2 2 2 2 2 2 3 3 3 3 2 2 2 2 2 1 1 2 1 1 1 2 2 1 1 1 1 1 1 1 1 1 1 1 0 0 0 0
2 2 2 2 2 2 2 2 2 2 2 2 2 2 2 2 2 2 3 3 2 2 1 1 1 2 2 2 1 1 1 1 1 1 1 1 1 1 1 0 0 0 0 0
2 2 2 2 2 2 2 2 2 2 3 3 3 3 3 3 2 2 2 2 1 2 1 1 2 3 3 1 2 1 1 1 1 1 1 1 1 1 1 1 1 1 1 1
2 2 2 1 1 1 2 2 2 2 2 3 3 3 3 2 2 2 2 2 1 1 1 2 3 3 2 1 1 1 1 1 1 1 1 1 1 1 1 1 1 1 1 1
2 2 2 2 2 2 3 2 1 2 2 1 2 2 2 2 2 1 1 1 2 1 1 2 2 2 1 1 1 1 1 1 1 1 1 1 1 1 1 1 1 1 1 1
2 2 2 3 2 2 1 1 1 1 1 1 1 1 0 0 1 1 1 1 1 1 1 1 1 1 1 1 1 1 1 1 1 1 1 1 1 1 1 1 1 1 1 1
2 1 1 1 1 1 1 2 2 2 1 1 1 1 1 1 1 1 1 1 1 1 1 1 1 1 1 1 1 1 1 1 1 1 1 1 1 1 1 1 1 1 1 1
Wind_Direction
267 276 260 250 246 228 226 232 242 260 271 276 280 279 270 259 246 246 259 252 242 266 255 220 245 352 14 218 239 238 244 243 240 248 253 254 255 252 251 246 243 234 233 237
276 263 260 263 252 239 236 240 251 266 273 267 273 277 278 267 258 254 247 234 237 256 264 237 214 232 275 280 267 258 256 255 256 249 244 246 244 242 247 242 237 227 230 232
272 284 298 265 239 225 226 224 228 247 256 279 288 278 263 260 254 241 239 231 235 259 266 237 215 214 234 258 268 264 262 264 261 253 250 248 246 240 243 241 236 234 236 230
276 296 252 246 234 213 231 247 239 252 274 282 280 289 278 249 229 245 246 250 268 270 275 271 230 209 225 244 251 259 259 261 259 249 248 248 242 241 240 236 233 229 232 230
248 261 267 267 247 207 229 273 255 248 270 298 315 312 297 12 96 271 258 272 279 271 266 267 280 263 248 260 256 258 260 258 255 246 246 248 244 242 235 233 235 233 229 229
239 252 258 258 191 176 90 280 275 246 262 284 339 297 278 344 0 348 1 0 336 334 328 287 275 269 260 261 256 256 263 266 257 250 246 250 247 245 243 235 232 233 244 236
234 251 264 254 177 132 197 254 299 300 267 245 246 252 276 313 334 357 342 335 339 346 310 279 269 258 258 262 256 262 274 277 261 249 250 255 251 241 235 234 230 229 246 248
211 235 253 185 157 201 233 281 306 304 292 276 275 288 298 309 311 317 332 333 334 326 303 303 293 264 268 265 267 276 281 281 268 266 276 280 256 254 240 224 222 232 245 271
210 227 244 189 222 247 288 294 297 301 308 289 279 278 283 289 284 280 294 308 320 305 303 307 298 263 265 275 282 287 285 283 281 284 272 273 259 265 262 234 211 217 215 243
260 264 261 252 258 273 274 272 290 298 294 279 273 273 276 274 279 291 290 289 295 296 295 302 303 288 264 282 288 272 263 283 288 276 289 303 296 279 273 252 225 219 223 230
255 266 277 256 240 259 280 284 288 293 291 281 273 270 265 257 257 266 275 277 277 269 277 288 305 300 294 300 299 274 267 287 290 264 235 299 321 301 268 245 226 223 218 211
239 241 235 264 259 269 278 274 275 290 300 298 272 265 269 261 258 258 267 274 282 284 282 286 295 293 290 288 261 239 268 296 299 277 275 277 291 330 328 280 278 269 265 256
241 271 267 274 284 267 267 286 300 285 270 280 288 277 269 272 271 267 263 256 255 263 268 274 281 283 280 275 267 240 228 268 285 279 268 277 290 294 323 337 316 294 284 277
242 246 263 262 269 286 293 304 313 303 293 279 280 283 277 281 279 271 263 256 252 253 262 267 274 279 277 261 250 243 231 254 260 250 257 265 274 267 265 300 335 337 329 327
246 231 230 245 272 288 288 295 301 293 293 296 291 273 253 253 265 271 272 265 258 257 261 261 270 278 279 244 226 234 239 250 245 237 249 267 274 267 261 266 273 325 349 350
248 249 232 232 246 256 263 262 257 267 271 274 281 275 261 245 260 273 272 250 240 252 259 258 263 268 254 223 226 236 234 234 230 217 233 268 283 277 278 267 291 356 333 332
209 234 232 238 243 246 245 244 243 249 252 257 263 270 271 257 264 273 274 263 250 253 254 248 253 251 234 212 211 215 222 231 242 240 214 233 255 247 236 195 210 269 298 302
216 219 217 217 227 241 253 257 251 244 246 250 259 262 259 251 252 265 271 278 281 281 266 245 236 223 213 220 201 178 189 205 200 190 186 206 219 199 161 154 152 70 332 327
220 221 228 232 231 229 243 256 255 246 248 240 238 250 257 259 257 261 266 266 260 266 268 243 220 189 207 207 175 163 174 186 188 192 184 203 232 170 149 148 156 206 275 320
217 215 220 235 242 233 243 250 250 251 245 224 226 246 263 267 262 260 264 268 257 244 234 215 204 194 186 174 164 162 175 184 187 192 186 183 185 182 172 163 172 214 281 297
240 242 237 240 253 251 239 234 236 248 253 224 219 238 255 267 264 254 252 274 275 221 206 191 169 168 167 168 167 163 167 166 165 172 176 177 174 170 172 160 166 241 289 301
233 231 233 235 244 266 263 245 235 238 247 247 241 238 247 261 263 264 259 249 245 208 193 167 158 171 175 165 149 149 151 154 161 165 165 162 167 174 180 174 185 240 270 276
242 237 236 235 233 250 274 268 245 230 234 239 237 235 239 248 249 246 268 257 221 211 192 177 183 184 174 143 138 148 157 162 169 172 173 176 180 185 189 199 220 229 245 265
254 251 248 243 208 233 263 268 255 244 241 248 245 236 230 239 262 252 234 215 214 212 187 184 186 178 146 114 137 149 154 156 160 167 175 177 178 188 201 215 225 234 241 255
246 248 240 229 232 238 240 245 250 251 248 248 253 253 241 225 225 224 174 172 183 168 152 176 168 148 122 124 143 151 150 159 159 156 165 177 191 202 209 220 227 235 248 258
244 244 245 242 238 235 227 217 227 228 208 228 260 258 226 145 131 132 129 131 141 140 124 121 127 125 121 128 132 139 148 156 158 154 172 187 194 201 215 232 245 255 260 264
251 251 251 258 248 223 208 208 216 225 217 208 224 234 152 129 127 126 122 121 121 116 111 110 111 116 122 124 123 127 139 148 152 156 175 195 206 215 224 235 249 263 272 269